Weather History for Orlando International, FL

Change the Weather History Date:

Sunday, January 29, 2012

  Actual Average Record
Temperature  
Mean Temperature 63 °F 61 °F  
Max Temperature 75 °F 72 °F 85 °F (2009)
Min Temperature 50 °F 50 °F 27 °F (1897)
Degree Days  
Heating Degree Days 2 6  
Month to date heating degree days 155 181  
Since 1 July heating degree days 238 372  
Cooling Degree Days 0 2  
Month to date cooling degree days 19 34  
Year to date cooling degree days 19 34  
Growing Degree Days 12 (Base 50)    
Moisture  
Dew Point 48 °F    
Average Humidity 65    
Maximum Humidity 96    
Minimum Humidity 33    
Precipitation  
Precipitation 0.00 in 0.08 in 0.67 in (1894)
Month to date precipitation 0.13 2.20  
Year to date precipitation 0.13 2.20  
Sea Level Pressure  
Sea Level Pressure 30.27 in    
Wind  
Wind Speed 8 mph (NNE)    
Max Wind Speed 15 mph    
Max Gust Speed 21 mph    
Visibility 10 miles    
Events      
T = Trace of Precipitation, MM = Missing Value Source: NWS Daily Summary

Daily Weather History Graph

Daily Weather History Graph

Search for Another Location

Airport:

Trip Planner

Search our weather history database for the weather conditions in past years. The results will help you decide how hot, cold, wet, or windy it might be!

Date:

Astronomy

Jan. 29, 2012 Rise Set
Actual Time 7:14 AM EST 6:02 PM EST
Civil Twilight 6:49 AM EST 6:26 PM EST
Nautical Twilight 6:21 AM EST 6:55 PM EST
Astronomical Twilight 5:53 AM EST 7:23 PM EST
Moon 10:42 AM EST (1/29) No Moon Set
Length of Visible Light 11h 36m
Length of Day
10h 47m
Waxing Crescent, 36% of the Moon is Illuminated
Jan 29
Waxing Crescent
Jan 30
First Quarter
Feb 7
Full
Feb 14
Last Quarter
Feb 21
New

Hourly Weather History & Observations

Time (EST) Temp. Dew Point Humidity Pressure Visibility Wind Dir Wind Speed Gust Speed Precip Events Conditions
1:53 AM 53.6 °F 50.0 °F 88% 30.21 in 10.0 mi NNW 4.6 mph - N/A   Overcast
2:53 AM 53.6 °F 50.0 °F 88% 30.21 in 10.0 mi Calm Calm - N/A   Mostly Cloudy
3:53 AM 53.1 °F 50.0 °F 89% 30.21 in 10.0 mi NW 3.5 mph - N/A   Mostly Cloudy
4:53 AM 52.0 °F 48.9 °F 89% 30.21 in 10.0 mi Calm Calm - N/A   Mostly Cloudy
5:53 AM 52.0 °F 50.0 °F 93% 30.23 in 10.0 mi North 5.8 mph - N/A   Mostly Cloudy
6:53 AM 53.1 °F 50.0 °F 89% 30.26 in 10.0 mi North 5.8 mph - N/A   Mostly Cloudy
7:53 AM 54.0 °F 50.0 °F 86% 30.28 in 10.0 mi North 6.9 mph - N/A   Mostly Cloudy
8:53 AM 57.0 °F 50.0 °F 77% 30.29 in 10.0 mi NNW 6.9 mph - N/A   Mostly Cloudy
9:53 AM 63.0 °F 46.0 °F 54% 30.31 in 10.0 mi North 11.5 mph - N/A   Scattered Clouds
10:53 AM 68.0 °F 39.9 °F 36% 30.31 in 10.0 mi NNE 9.2 mph 18.4 mph N/A   Scattered Clouds
11:53 AM 70.0 °F 43.0 °F 38% 30.30 in 10.0 mi North 11.5 mph - N/A   Partly Cloudy
12:53 PM 72.0 °F 43.0 °F 35% 30.28 in 10.0 mi NNE 9.2 mph - N/A   Scattered Clouds
1:53 PM 73.0 °F 43.0 °F 34% 30.25 in 10.0 mi North 8.1 mph - N/A   Scattered Clouds
2:53 PM 73.9 °F 44.1 °F 34% 30.24 in 10.0 mi North 4.6 mph - N/A   Mostly Cloudy
3:53 PM 73.0 °F 45.0 °F 37% 30.24 in 10.0 mi NE 8.1 mph - N/A   Mostly Cloudy
4:53 PM 71.1 °F 46.9 °F 42% 30.25 in 10.0 mi NE 12.7 mph - N/A   Partly Cloudy
5:53 PM 66.9 °F 46.9 °F 49% 30.27 in 10.0 mi ENE 11.5 mph - N/A   Partly Cloudy
6:53 PM 63.0 °F 48.0 °F 58% 30.29 in 10.0 mi ENE 9.2 mph - N/A   Scattered Clouds
7:53 PM 61.0 °F 48.9 °F 64% 30.31 in 10.0 mi NE 10.4 mph - N/A   Partly Cloudy
8:53 PM 59.0 °F 52.0 °F 78% 30.32 in 10.0 mi NNE 12.7 mph - N/A   Scattered Clouds
9:53 PM 57.9 °F 51.1 °F 78% 30.33 in 10.0 mi NNE 10.4 mph - N/A   Scattered Clouds
10:53 PM 55.9 °F 51.1 °F 84% 30.34 in 10.0 mi NNE 8.1 mph - N/A   Partly Cloudy
11:53 PM 55.0 °F 50.0 °F 83% 30.34 in 10.0 mi North 4.6 mph - N/A   Clear